TimeEST,TemperatureF,Dew PointF,Humidity,Sea Level PressureIn,VisibilityMPH,Wind Direction,Wind SpeedMPH,Gust SpeedMPH,PrecipitationIn,Events,Conditions,WindDirDegrees,DateUTC
12:00 AM,-9999,-9999,N/A,29.47,-9999.0,WNW,10.4,-,N/A,,Unknown,300,2013-01-05 05:00:00
1:00 AM,-26,,,29.46,,WNW,11.5,,,,,300,2013-01-05 06:00:00
1:00 AM,-9999,-9999,N/A,29.46,-9999.0,WNW,11.5,-,N/A,,Unknown,300,2013-01-05 06:00:00
2:00 AM,-9999,-9999,N/A,29.46,-9999.0,NW,11.5,-,N/A,,Unknown,310,2013-01-05 07:00:00
4:00 AM,-27,,,29.47,,NW,11.5,,,,,320,2013-01-05 09:00:00
4:00 AM,-9999,-9999,N/A,29.47,-9999.0,NW,10.4,-,N/A,,Unknown,320,2013-01-05 09:00:00
5:00 AM,-9999,-9999,N/A,29.46,-9999.0,WNW,10.4,-,N/A,,Unknown,300,2013-01-05 10:00:00
6:00 AM,-9999,-9999,N/A,29.47,-9999.0,WNW,13.8,-,N/A,,Unknown,300,2013-01-05 11:00:00
7:00 AM,-28,,,29.47,,NW,13.8,,,,,310,2013-01-05 12:00:00
7:00 AM,-9999,-9999,N/A,29.47,-9999.0,NW,12.7,-,N/A,,Unknown,320,2013-01-05 12:00:00
8:00 AM,-9999,-9999,N/A,29.49,-9999.0,NW,6.9,-,N/A,,Unknown,320,2013-01-05 13:00:00
10:00 AM,-28,,,29.51,,NW,8.1,,,,,320,2013-01-05 15:00:00
10:00 AM,-9999,-9999,N/A,29.51,-9999.0,NW,8.1,-,N/A,,Unknown,320,2013-01-05 15:00:00
11:00 AM,-9999,-9999,N/A,29.51,-9999.0,WNW,12.7,-,N/A,,Unknown,300,2013-01-05 16:00:00
12:00 PM,-9999,-9999,N/A,29.51,-9999.0,West,11.5,-,N/A,,Unknown,280,2013-01-05 17:00:00
1:00 PM,-28,,,29.52,,NW,9.2,,,,,310,2013-01-05 18:00:00
1:00 PM,-9999,-9999,N/A,29.52,-9999.0,NW,8.1,-,N/A,,Unknown,320,2013-01-05 18:00:00
2:00 PM,-9999,-9999,N/A,29.54,-9999.0,NW,6.9,-,N/A,,Unknown,320,2013-01-05 19:00:00
3:00 PM,-9999,-9999,N/A,29.55,-9999.0,NW,5.8,-,N/A,,Unknown,320,2013-01-05 20:00:00
4:00 PM,-28,,,29.57,,NNW,6.9,,,,,330,2013-01-05 21:00:00
4:00 PM,-9999,-9999,N/A,29.57,-9999.0,NNW,6.9,-,N/A,,Unknown,330,2013-01-05 21:00:00
5:00 PM,-9999,-9999,N/A,29.58,-9999.0,WNW,8.1,-,N/A,,Unknown,300,2013-01-05 22:00:00
6:00 PM,-9999,-9999,N/A,29.59,-9999.0,NW,6.9,-,N/A,,Unknown,320,2013-01-05 23:00:00
7:00 PM,-26,,,29.58,,NW,10.4,,,,,310,2013-01-06 00:00:00
7:00 PM,-9999,-9999,N/A,29.58,-9999.0,WNW,11.5,-,N/A,,Unknown,300,2013-01-06 00:00:00
8:00 PM,-9999,-9999,N/A,29.58,-9999.0,NW,8.1,-,N/A,,Unknown,320,2013-01-06 01:00:00
9:00 PM,-9999,-9999,N/A,29.58,-9999.0,NNW,4.6,-,N/A,,Unknown,340,2013-01-06 02:00:00
10:00 PM,-28,,,29.59,,North,4.6,,,,,350,2013-01-06 03:00:00
10:00 PM,-9999,-9999,N/A,29.59,-9999.0,North,4.6,-,N/A,,Unknown,360,2013-01-06 03:00:00
11:00 PM,-9999,-9999,N/A,29.59,-9999.0,NW,4.6,-,N/A,,Unknown,320,2013-01-06 04:00:00